N5ZPR Weather Reports


Display with metric or nautical units.
time (UTC)temp
F
wind
direction
speed
MPH
gust
MPH
rain 1hr
in
rain 24hr
in
rain mn
in
humidity
%
barometer
mb
20260905201004 101 355 0.0 1.0 0.00 0.00 0.00 37 1009.6
20260905200003 100 15 0.0 0.0 0.00 0.00 0.00 38 1010.0
20260905195004 101 130 0.0 1.0 0.00 0.00 0.00 37 1010.5
20260905194004 100 128 0.0 2.0 0.00 0.00 0.00 38 1010.5
20260905193004 100 161 0.0 0.0 0.00 0.00 0.00 39 1010.5
20260905192003 99 116 0.0 0.0 0.00 0.00 0.00 40 1011.0
20260905191003 98 136 0.0 2.0 0.00 0.00 0.00 41 1011.0
20260905190004 98 74 0.0 1.0 0.00 0.00 0.00 41 1011.0
20260905185003 98 24 0.0 0.0 0.00 0.00 0.00 40 1011.3
20260905184003 98 230 0.0 1.0 0.00 0.00 0.00 42 1011.3
20260905183003 98 109 0.0 0.0 0.00 0.00 0.00 41 1011.9
20260905182003 98 161 0.0 0.0 0.00 0.00 0.00 41 1011.9
20260905181003 98 144 0.0 0.0 0.00 0.00 0.00 41 1011.9
20260905180004 97 171 0.0 0.0 0.00 0.00 0.00 43 1011.9
20260905175003 96 114 0.0 0.0 0.00 0.00 0.00 43 1012.5
20260905174004 97 102 0.0 0.0 0.00 0.00 0.00 43 1012.5
20260905173004 96 8 0.0 0.0 0.00 0.00 0.00 43 1012.5
20260905172004 96 67 0.0 0.0 0.00 0.00 0.00 45 1012.5
20260905171003 95 130 0.0 0.0 0.00 0.00 0.00 46 1012.5
20260905170003 95 107 0.0 0.0 0.00 0.00 0.00 45 1012.5
20260905165004 95 15 0.0 0.0 0.00 0.00 0.00 47 1012.5
20260905163003 94 142 0.0 0.0 0.00 0.00 0.00 46 1012.5
20260905162004 94 127 0.0 0.0 0.00 0.00 0.00 49 1012.5
20260905161003 93 313 0.0 0.0 0.00 0.00 0.00 51 1012.5
20260905160004 93 183 0.0 0.0 0.00 0.00 0.00 51 1012.5
20260905155004 91 5 0.0 0.0 0.00 0.00 0.00 54 1012.5
20260905154004 91 159 0.0 0.0 0.00 0.00 0.00 55 1012.3
20260905153003 91 213 0.0 0.0 0.00 0.00 0.00 56 1012.3
20260905152004 89 224 0.0 0.0 0.00 0.00 0.00 59 1012.3
20260905151003 88 249 0.0 0.0 0.00 0.00 0.00 59 1012.3
20260905150004 88 164 0.0 0.0 0.00 0.00 0.00 60 1012.3
20260905145004 86 87 0.0 0.0 0.00 0.00 0.00 64 1012.6
20260905144004 85 256 0.0 0.0 0.00 0.00 0.00 68 1012.6
20260905142004 83 0 0.0 0.0 0.00 0.00 0.00 72 1012.3
20260905141004 82 0 0.0 0.0 0.00 0.00 0.00 75 1012.3
20260905140004 81 0 0.0 0.0 0.00 0.00 0.00 77 1012.3
20260905134003 79 0 0.0 0.0 0.00 0.00 0.00 81 1011.5
20260905133003 79 0 0.0 0.0 0.00 0.00 0.00 82 1011.5
20260905131003 78 0 0.0 0.0 0.00 0.00 0.00 82 1011.5
20260905130004 78 0 0.0 0.0 0.00 0.00 0.00 83 1011.5
20260905125004 77 0 0.0 0.0 0.00 0.00 0.00 85 1011.5
20260905124003 76 0 0.0 0.0 0.00 0.00 0.00 85 1011.7
20260905123003 76 0 0.0 0.0 0.00 0.00 0.00 84 1011.7
20260905122003 76 0 0.0 0.0 0.00 0.00 0.00 84 1011.7
20260905121004 77 0 0.0 0.0 0.00 0.00 0.00 84 1011.6
20260905120003 76 0 0.0 0.0 0.00 0.00 0.00 84 1011.6
20260905115003 77 0 0.0 0.0 0.00 0.00 0.00 83 1011.6
20260905114003 77 0 0.0 0.0 0.00 0.00 0.00 83 1011.6
20260905113003 77 0 0.0 0.0 0.00 0.00 0.00 83 1011.3
20260905112003 77 0 0.0 0.0 0.00 0.00 0.00 82 1011.3
20260905111004 78 0 0.0 0.0 0.00 0.00 0.00 81 1011.3
20260905110004 78 0 0.0 0.0 0.00 0.00 0.00 80 1011.3
20260905105003 78 0 0.0 0.0 0.00 0.00 0.00 80 1011.5
20260905104003 79 0 0.0 0.0 0.00 0.00 0.00 78 1011.5
20260905102003 80 0 0.0 0.0 0.00 0.00 0.00 77 1011.3
20260905101003 79 0 0.0 0.0 0.00 0.00 0.00 78 1011.3
20260905100004 78 0 0.0 0.0 0.00 0.00 0.00 81 1011.2
20260905095004 78 0 0.0 0.0 0.00 0.00 0.00 81 1011.2
20260905094004 78 0 0.0 0.0 0.00 0.00 0.00 80 1011.2
20260905093003 78 0 0.0 0.0 0.00 0.00 0.00 79 1011.2
20260905092004 79 0 0.0 0.0 0.00 0.00 0.00 79 1011.1
20260905091003 79 0 0.0 0.0 0.00 0.00 0.00 79 1011.1
20260905090004 79 0 0.0 0.0 0.00 0.00 0.00 78 1011.0
20260905085003 79 0 0.0 0.0 0.00 0.00 0.00 78 1011.0
20260905084003 79 0 0.0 0.0 0.00 0.00 0.00 77 1011.0
20260905083004 80 0 0.0 0.0 0.00 0.00 0.00 77 1011.2
20260905082004 80 0 0.0 0.0 0.00 0.00 0.00 76 1011.2
20260905081004 80 0 0.0 0.0 0.00 0.00 0.00 75 1011.2
20260905080003 80 0 0.0 0.0 0.00 0.00 0.00 75 1011.2
20260905075003 81 0 0.0 0.0 0.00 0.00 0.00 74 1011.2
20260905074003 81 0 0.0 0.0 0.00 0.00 0.00 74 1011.2
20260905073004 81 0 0.0 0.0 0.00 0.00 0.00 73 1011.2
20260905072003 81 0 0.0 0.0 0.00 0.00 0.00 73 1011.2
20260905070004 82 0 0.0 0.0 0.00 0.00 0.00 71 1011.2
20260905064004 83 0 0.0 0.0 0.00 0.00 0.00 70 1011.3
20260905063004 83 0 0.0 0.0 0.00 0.00 0.00 69 1011.2
20260905060004 84 0 0.0 0.0 0.00 0.00 0.00 67 1011.2
20260905055003 84 0 0.0 0.0 0.00 0.00 0.00 67 1011.2
20260905054004 84 0 0.0 0.0 0.00 0.00 0.00 66 1011.1
20260905053003 85 0 0.0 0.0 0.00 0.00 0.00 65 1011.1
20260905052004 85 0 0.0 0.0 0.00 0.00 0.00 64 1011.0
20260905051003 85 0 0.0 0.0 0.00 0.00 0.00 64 1011.0
20260905045004 86 0 0.0 0.0 0.00 0.00 0.00 62 1011.1
20260905044004 86 0 0.0 0.0 0.00 0.00 0.00 62 1011.1
20260905043004 86 0 0.0 0.0 0.00 0.00 0.00 61 1011.1
20260905042004 87 0 0.0 0.0 0.00 0.00 0.00 60 1011.1
20260905041003 87 229 0.0 0.0 0.00 0.00 0.00 59 1011.1
20260905040004 87 169 0.0 0.0 0.00 0.00 0.00 58 1011.1
20260905034003 88 126 0.0 0.0 0.00 0.00 0.00 57 1011.0
20260905032003 89 156 0.0 0.0 0.00 0.00 0.00 54 1011.0
20260905030004 90 71 0.0 0.0 0.00 0.00 0.00 52 1010.7
20260905025004 90 177 0.0 0.0 0.00 0.00 0.00 52 1010.3
20260905024003 91 202 0.0 0.0 0.00 0.00 0.00 50 1010.3
20260905023004 91 167 0.0 0.0 0.00 0.00 0.00 49 1010.3
20260905022003 92 159 0.0 0.0 0.00 0.00 0.00 48 1009.3
20260905021004 92 183 0.0 0.0 0.00 0.00 0.00 46 1009.3
20260905020004 92 153 0.0 0.0 0.00 0.00 0.00 46 1009.3
20260905015003 93 164 0.0 0.0 0.00 0.00 0.00 46 1009.3
20260905012004 94 123 0.0 0.0 0.00 0.00 0.00 46 1009.3
20260905011003 94 139 0.0 0.0 0.00 0.00 0.00 46 1008.8
20260905010003 94 117 0.0 0.0 0.00 0.00 0.00 45 1008.8
20260905005004 95 131 0.0 0.0 0.00 0.00 0.00 45 1008.8
20260905004003 96 132 0.0 0.0 0.00 0.00 0.00 43 1008.8
20260905003004 96 140 0.0 0.0 0.00 0.00 0.00 43 1008.5
20260905002003 96 123 0.0 0.0 0.00 0.00 0.00 43 1008.5
20260905001003 96 149 0.0 0.0 0.00 0.00 0.00 42 1008.5
20260905000004 96 127 0.0 0.0 0.00 0.00 0.00 43 1008.5
20260904235004 97 130 0.0 0.0 0.00 0.00 0.00 42 1008.5
20260904234004 97 116 0.0 0.0 0.00 0.00 0.00 41 1008.5
20260904233004 98 169 0.0 0.0 0.00 0.00 0.00 40 1008.5
20260904232004 98 111 0.0 0.0 0.00 0.00 0.00 39 1008.8
20260904230003 99 148 0.0 0.0 0.00 0.00 0.00 38 1008.8
20260904225004 100 114 0.0 0.0 0.00 0.00 0.00 37 1008.8
20260904223004 101 87 0.0 0.0 0.00 0.00 0.00 36 1008.8
20260904222003 101 167 0.0 0.0 0.00 0.00 0.00 36 1008.8
20260904220003 100 123 0.0 0.0 0.00 0.00 0.00 37 1008.8
20260904215003 101 104 0.0 0.0 0.00 0.00 0.00 36 1008.8
20260904214003 100 149 0.0 0.0 0.00 0.00 0.00 37 1009.7
20260904212004 100 104 0.0 0.0 0.00 0.00 0.00 37 1009.7
20260904211003 101 150 0.0 0.0 0.00 0.00 0.00 36 1009.7
20260904210003 100 118 0.0 0.0 0.00 0.00 0.00 36 1009.7
20260904205003 100 144 0.0 0.0 0.00 0.00 0.00 37 1009.7
20260904204004 100 104 0.0 0.0 0.00 0.00 0.00 38 1009.7